AirNav   Pilot Hours Calculator
 
 783 users online  

SC90 Do-Little Field Airport
St Matthews, South Carolina, USA

GOING TO ST MATTHEWS?


FAA INFORMATION EFFECTIVE 05 NOVEMBER 2020

Location

FAA Identifier: SC90
Lat/Long: 33-40-35.7300N 080-56-53.3300W
33-40.595500N 080-56.888833W
33.6765917,-80.9481472
(estimated)
Elevation: 369 ft. / 112 m (estimated)
Variation: 05W (1990)
From city: 9 miles W of ST. MATTHEWS, SC
Time zone: UTC -5 (UTC -4 during Daylight Saving Time)
Zip code: 29135

Airport Operations

Airport use: Private use. Permission required prior to landing
Activation date: 06/1993
Control tower: no
ARTCC: JACKSONVILLE CENTER
FSS: ANDERSON FLIGHT SERVICE STATION
Attendance: UNATNDD
Wind indicator: yes
Segmented circle: no

Airport Communications

WX ASOS at OGB (14 nm S): 118.525 (803-536-3901)
WX ASOS at CUB (18 nm N): 118.675 (803-929-0665)
WX ASOS at CAE (18 nm NW): 120.15 (803-822-4168)

Nearby radio navigation aids

VOR radial/distance  VOR name  Freq  Var
CAEr156/12.1COLUMBIA VORTAC114.7002W
MMTr214/16.5MC ENTIRE VORTAC113.2008W
VANr302/27.7VANCE VORTAC110.4006W

 
NDB name  Hdg/Dist  Freq  Var  ID
SUMTER244/34.925207WSMS ... -- ...
AIKEN094/36.434706WAIK .- .. -.-
MANNING284/37.438106WMNI -- -. ..

Airport Services

Runway Information

Runway 14/32

Dimensions: 3200 x 100 ft. / 975 x 30 m
Surface: turf
RUNWAY 14  RUNWAY 32
Traffic pattern: leftright

Airport Ownership and Management from official FAA records

Ownership: Privately-owned
Owner: DO-LITTLE FIELD INC
160 DO LITTLE LANE
ST MATTHEWS, SC 29135
Phone 803-874-4281
Manager: BILL MITCHELL
35 DOOLITTLE LN
ST MATTHEWS, SC 29135
Phone 803-874-1310

Airport Operational Statistics

Aircraft based on the field: 9
Single engine airplanes: 9
    

Additional Remarks

FOR CD CTC COLUMBIA APCH AT 803-822-5242 OR 803-822-5040.

Instrument Procedures

There are no published instrument procedures at SC90.

Some nearby airports with instrument procedures:

KXNO - North Air Force Auxiliary Field (8 nm SW)
KOGB - Orangeburg Municipal Airport (14 nm S)
KMMT - Mc Entire Joint National Guard Base (16 nm NE)
6J0 - Lexington County Airport (16 nm NW)
KCUB - Jim Hamilton L B Owens Airport (18 nm N)
KCAE - Columbia Metropolitan Airport (18 nm NW)
 
Loc | Ops | Rwys | IFR | FBO | Links
Com | Nav | Svcs | Stats | Notes
Area around SC90 (Do-Little Field Airport)
 
Road maps at: MapQuest Bing Google
 
Aerial photo
WARNING: Photo may not be current or correct
Aerial photo of SC90 (Do-Little Field Airport)
Photo by Eddie Price
Photo taken 10-Nov-2012
looking west.

Do you have a better or more recent aerial photo of Do-Little Field Airport that you would like to share? If so, please send us your photo.

 
Sectional chart

 
Airport distance calculator
Flying to Do-Little Field Airport? Find the distance to fly.

From to SC90

Sunrise and sunset
Times for 26-Nov-2020
 Local
(UTC-5)
 Zulu
(UTC)
Morning civil twilight06:4111:41
Sunrise07:0812:08
Sunset17:1522:15
Evening civil twilight17:4222:42

Current date and time
Zulu (UTC)  27-Nov-2020 03:47:53
Local (UTC-5)  26-Nov-2020 22:47:53
 
METAR
KXNO 
8nm SW 
270331Z AUTO 00000KT 9SM BKN029 OVC036 16/ A3008 RMK AO2 SLP188 $
KOGB 
14nm S 
270259Z AUTO 00000KT 2SM BR FEW002 BKN042 16/16 A3008 RMK AO2 VIS 1 1/4V4 T01560156
KMMT 
17nm NE 
270326Z AUTO 14003KT 5/8SM BR OVC085 15/15 A3006 RMK AO2 SLP181 RVRNO $
KCAE 
18nm NW 
270256Z 00000KT 4SM BR FEW002 BKN080 16/15 A3007 RMK AO2 RAE05 SLP181 P0000 60000 T01560150 51007 $
KCUB 
18nm N 
270326Z AUTO 00000KT 1 3/4SM BR BKN002 BKN085 15/14 A3008 RMK AO2 T01500144 $
TAF
KOGB 
14nm S 
262108Z 2621/2718 19005KT P6SM SCT020 BKN110 FM270300 VRB03KT 4SM BR SCT020 BKN045 FM270600 00000KT 3SM BR BKN006 FM270900 00000KT 1/4SM FG OVC004 FM271500 29005KT P6SM SCT020
KMMT 
17nm NE 
270027Z 2700/2806 19006KT 1200 BR SCT015 QNH3001INS TEMPO 2700/2703 0400 FG BECMG 2703/2704 22012KT 9000 -SHRA BKN015 QNH3006INS TEMPO 2705/2708 25020G25KT 8000 -TSRA OVC002CB BECMG 2713/2714 27010G15KT 9999 NSW FEW010 QNH3005INS BECMG 2801/2802 VRB06KT 9999 FEW020 QNH3005INS TX23/2718Z TN12/2706Z
KCAE 
18nm NW 
262108Z 2621/2718 21008KT P6SM SCT020 BKN150 FM270300 00000KT 6SM BR SCT015 BKN045 FM270600 00000KT 1SM BR OVC006 FM271400 28005KT P6SM SKC
KCUB 
18nm N 
262108Z 2621/2718 20005KT P6SM SCT015 BKN150 FM270300 00000KT 6SM BR SCT015 BKN045 FM270600 00000KT 1SM BR OVC006 FM271400 28005KT P6SM SKC
NOTAMs
Click for the latest NOTAMs
NOTAMs are issued by the DoD/FAA and will open in a separate window not controlled by AirNav.

 

 
 

Would you like to see your business listed on this page?

 If your business provides an interesting product or service to pilots, flight crews, aircraft, or users of the Do-Little Field Airport, you should consider listing it here.  To start the listing process, click on the button below
 
Add a business
 

Other Pages about Do-Little Field Airport

Update a link
 
Copyright © AirNav, LLC. All rights reserved. Privacy Policy  Contact